La Ceiba, Honduras

10:25 AM CST on July 28, 2017 (GMT -0600)
Goloson International

Weather History for MHLC - November, 2012

Change the Weather History Date:

Sunday, November 11, 2012

  Actual Average Record
Temperature  
Mean Temperature 74 °F -  
Max Temperature 82 °F 80 °F 87 °F (1998)
Min Temperature 65 °F 67 °F 61 °F (2014)
Cooling Degree Days 8    
Growing Degree Days 24 (Base 50)    
Moisture  
Dew Point 71 °F    
Average Humidity 84    
Maximum Humidity 94    
Minimum Humidity 63    
Precipitation  
Precipitation 0.00 in 0.68 in - ()
Sea Level Pressure  
Sea Level Pressure 29.97 in    
Wind  
Wind Speed 2 mph ()    
Max Wind Speed 12 mph    
Max Gust Speed -    
Visibility 6.8 miles    
Events      
Averages and records for this station are not official NWS values.
T = Trace of Precipitation, MM = Missing Value Source: Averaged Metar Reports

Daily Weather History Graph

Daily Weather History Graph

Search for Another Location

Airport or City:

Trip Planner

Search our weather history database for the weather conditions in past years. The results will help you decide how hot, cold, wet, or windy it might be!

Date:

Astronomy

Nov. 11, 2012 Rise Set
Actual Time 5:48 AM CST 5:14 PM CST
Civil Twilight 5:25 AM CST 5:37 PM CST
Nautical Twilight 4:59 AM CST 6:03 PM CST
Astronomical Twilight 4:34 AM CST 6:28 PM CST
Moon 3:21 AM CST (11/11) 3:23 PM CST (11/11)
Length of Visible Light 12h 11m
Length of Day
11h 26m
Waning Crescent, 7% of the Moon is Illuminated
Nov 11
Waning Crescent
Nov 13
New
Nov 20
First Quarter
Nov 28
Full
Dec 6
Last Quarter

Hourly Weather History & Observations

Time (CST) Temp. Heat Index Dew Point Humidity Pressure Visibility Wind Dir Wind Speed Gust Speed Precip Events Conditions
12:00 AM 69 °F - 67 °F 91% 29.98 in 11 mi Calm Calm - -   Haze
12:00 AM 68.0 °F - 66.2 °F 94% 29.98 in 6.2 mi Calm Calm - N/A   Scattered Clouds
6:00 AM 66 °F - 65 °F 94% 29.99 in 12 mi South 2.3 mph - -   Haze
6:00 AM 69.8 °F - 68.0 °F 94% 29.98 in 6.2 mi SE 2.3 mph - N/A   Partly Cloudy
7:00 AM 69.8 °F - 68.0 °F 94% 29.98 in 6.2 mi SE 2.3 mph - N/A   Partly Cloudy
9:00 AM 78.8 °F - 69.8 °F 74% 30.01 in 6.2 mi West 3.5 mph - N/A   Partly Cloudy
10:00 AM 80.6 °F 84.6 °F 71.6 °F 74% 30.01 in 6.2 mi WSW 5.8 mph - N/A   Partly Cloudy
11:00 AM 80.6 °F 84.6 °F 71.6 °F 74% 29.98 in 6.2 mi NW 6.9 mph - N/A   Mostly Cloudy
12:00 PM 82 °F - 71 °F 63% 29.98 in 8 mi NW 4.6 mph - -   Haze
12:00 PM 82.4 °F 87.2 °F 71.6 °F 70% 29.98 in 6.2 mi NW 4.6 mph - N/A   Mostly Cloudy
1:00 PM 80.6 °F 84.6 °F 71.6 °F 74% 29.98 in 6.2 mi NW 4.6 mph - N/A   Mostly Cloudy
2:00 PM 80.6 °F 84.6 °F 71.6 °F 74% 29.95 in 6.2 mi NW 4.6 mph - N/A   Mostly Cloudy
3:00 PM 81 °F - 73 °F 71% 29.95 in 7 mi NNE 11.5 mph - -   Haze
3:00 PM 80.6 °F 85.4 °F 73.4 °F 79% 29.95 in 6.2 mi NW 3.5 mph - N/A   Mostly Cloudy
4:00 PM 80.6 °F 85.4 °F 73.4 °F 79% 29.89 in 6.2 mi NNW 3.5 mph - N/A   Mostly Cloudy
5:00 PM 78.8 °F - 73.4 °F 83% 29.92 in 6.2 mi Calm Calm - N/A   Mostly Cloudy
6:00 PM 77.0 °F - 73.4 °F 89% 29.92 in 6.2 mi Calm Calm - N/A   Mostly Cloudy
7:00 PM 75.2 °F - 73.4 °F 94% 29.95 in 6.2 mi Calm Calm - N/A   Mostly Cloudy
8:00 PM 73.4 °F - 71.6 °F 94% 29.95 in 6.2 mi Calm Calm - N/A   Scattered Clouds
9:00 PM 73 °F - 71 °F 92% 29.99 in 6 mi Calm Calm - -   Haze
9:00 PM 73.4 °F - 71.6 °F 94% 29.98 in 6.2 mi Calm Calm - N/A   Mostly Cloudy
10:00 PM 73.4 °F - 71.6 °F 94% 29.98 in 6.2 mi Calm Calm - N/A   Mostly Cloudy
11:00 PM 73.4 °F - 71.6 °F 94% 29.98 in 6.2 mi Calm Calm - N/A   Scattered Clouds